Temperature
8 6 6 6 7 7 8 8 8 8 8 7 6 6 7 7 7 6 6 6 6 6 6 5 5 5 5 5 5 5 6 6 6 5 6 6 6 6 6 6 6 7 7 8
6 5 6 7 7 7 7 7 6 7 7 7 6 6 6 6 6 6 6 6 5 5 5 4 4 4 4 5 5 5 5 5 5 5 6 5 5 6 6 6 6 6 6 7
5 5 6 6 6 6 6 6 6 6 6 6 5 5 5 6 6 6 5 5 5 4 4 4 4 3 3 4 4 4 4 5 5 5 5 5 5 5 5 5 5 6 6 6
5 5 5 5 5 5 5 5 5 5 4 4 5 3 5 4 4 4 4 4 4 4 3 3 3 3 2 3 3 3 4 4 4 4 4 5 5 5 5 5 5 5 5 5
4 4 4 4 4 4 4 5 5 4 4 3 4 3 3 4 3 3 3 3 2 2 2 2 2 2 2 2 2 2 3 3 3 4 4 4 4 4 4 4 4 4 5 5
3 4 3 3 3 4 4 4 4 4 3 2 3 3 3 3 3 3 2 2 2 2 2 1 1 1 1 1 1 2 2 2 3 3 3 3 3 3 3 3 4 4 4 4
3 3 3 3 3 3 3 2 2 2 2 2 4 3 2 2 2 2 1 1 1 1 1 1 0 0 0 1 1 1 1 1 2 2 2 2 2 3 3 3 3 3 3 3
2 2 2 2 2 1 2 2 1 1 2 3 2 2 1 1 1 1 1 1 1 1 0 0 0 -0 -0 0 0 0 1 1 1 1 1 2 2 2 2 2 2 3 3 3
2 2 2 2 2 2 1 1 2 1 1 1 2 2 1 1 1 1 0 0 -0 -0 -0 -0 -0 -0 -0 -0 -0 -0 0 0 1 1 1 1 1 1 1 1 2 2 2 2
1 0 1 1 2 1 1 1 0 0 1 1 2 2 1 0 0 -0 -1 -1 -1 -1 -1 -1 -1 -1 -1 -1 -1 -1 -1 -0 -0 0 0 0 0 0 0 1 1 1 1 2
1 -0 0 0 -1 -0 -0 0 -0 0 0 0 1 1 0 -0 -1 -1 -2 -2 -2 -2 -2 -2 -2 -2 -2 -2 -2 -1 -1 -1 -1 -1 -1 -1 -0 -0 -0 -0 -0 0 0 1
0 -0 -1 -0 -0 -0 -0 -1 -1 -1 -1 -0 -0 -1 -1 -1 -1 -2 -2 -2 -2 -2 -2 -2 -2 -2 -2 -2 -2 -2 -2 -2 -2 -2 -1 -1 -1 -1 -1 -1 -1 -0 -0 0
-1 -2 -2 -1 -1 -1 -1 -1 -2 -2 -2 -1 -1 -1 -1 -2 -2 -2 -3 -3 -3 -3 -3 -3 -3 -3 -3 -3 -3 -3 -3 -2 -2 -2 -2 -2 -2 -1 -1 -1 -1 -1 -1 -1
-0 -2 -2 -1 -1 -2 -2 -2 -2 -3 -3 -2 -2 -2 -2 -3 -3 -3 -3 -4 -4 -4 -4 -4 -4 -4 -4 -4 -4 -4 -3 -3 -3 -3 -3 -2 -2 -2 -2 -2 -2 -2 -2 -1
-2 -3 -2 -2 -1 -1 -2 -3 -3 -3 -3 -3 -2 -2 -3 -3 -4 -4 -4 -4 -5 -5 -5 -5 -4 -4 -4 -4 -4 -4 -4 -4 -3 -3 -3 -3 -3 -3 -3 -3 -2 -2 -2 -2
-3 -3 -3 -3 -2 -2 -2 -3 -3 -3 -3 -3 -3 -3 -4 -4 -4 -4 -5 -5 -5 -5 -6 -5 -5 -5 -5 -5 -5 -5 -4 -4 -4 -4 -4 -4 -3 -3 -3 -3 -3 -3 -3 -3
-4 -4 -3 -3 -3 -3 -4 -4 -4 -4 -4 -4 -4 -4 -5 -5 -5 -5 -5 -5 -6 -6 -6 -6 -6 -6 -5 -5 -5 -5 -5 -5 -5 -5 -4 -4 -4 -4 -4 -4 -4 -3 -3 -3
-4 -4 -4 -4 -4 -4 -3 -4 -4 -4 -5 -5 -5 -5 -5 -5 -6 -6 -5 -6 -6 -7 -7 -7 -6 -6 -6 -6 -6 -5 -5 -5 -5 -5 -5 -5 -5 -5 -5 -4 -4 -4 -4 -4
-5 -4 -4 -4 -4 -3 -4 -5 -5 -6 -5 -6 -6 -6 -6 -6 -6 -6 -6 -6 -7 -7 -7 -7 -7 -6 -6 -6 -6 -6 -6 -5 -5 -5 -5 -5 -5 -5 -5 -5 -5 -5 -5 -5
-6 -5 -5 -4 -4 -4 -4 -6 -5 -6 -6 -6 -6 -7 -7 -7 -7 -7 -7 -7 -7 -7 -7 -7 -7 -7 -7 -7 -7 -6 -6 -6 -6 -6 -6 -6 -6 -6 -6 -6 -6 -5 -6 -5
-6 -6 -5 -5 -4 -4 -6 -6 -6 -6 -6 -6 -6 -6 -7 -7 -8 -7 -7 -8 -8 -8 -8 -8 -8 -7 -7 -7 -7 -7 -7 -6 -6 -7 -7 -7 -6 -6 -6 -6 -6 -6 -6 -6
-6 -6 -6 -5 -5 -5 -7 -7 -7 -7 -6 -6 -6 -7 -7 -8 -8 -8 -8 -8 -8 -8 -8 -8 -8 -8 -8 -8 -8 -7 -7 -7 -7 -7 -7 -7 -7 -7 -7 -7 -7 -7 -7 -7
-6 -6 -6 -6 -6 -7 -7 -7 -7 -7 -7 -7 -7 -8 -8 -8 -8 -9 -9 -9 -9 -9 -9 -9 -8 -8 -8 -8 -8 -8 -8 -8 -8 -8 -8 -8 -8 -8 -8 -8 -8 -8 -8 -8
-7 -8 -7 -7 -8 -7 -7 -7 -7 -7 -8 -8 -8 -8 -9 -9 -9 -9 -9 -9 -9 -9 -9 -9 -9 -9 -9 -9 -9 -9 -9 -9 -9 -8 -9 -9 -9 -9 -9 -9 -9 -8 -8 -8
-7 -8 -8 -8 -9 -8 -8 -8 -8 -8 -8 -8 -9 -9 -9 -10 -10 -10 -10 -10 -10 -10 -10 -10 -10 -10 -10 -9 -9 -9 -9 -9 -9 -9 -9 -9 -9 -9 -9 -9 -9 -9 -9 -9
-9 -9 -9 -8 -8 -9 -8 -8 -8 -9 -9 -9 -9 -10 -10 -10 -10 -10 -11 -11 -10 -10 -10 -10 -10 -10 -10 -10 -10 -10 -10 -10 -10 -10 -10 -10 -10 -10 -10 -10 -10 -10 -10 -10
Wind_Speed
0 1 2 3 5 8 9 8 9 8 4 5 7 9 7 4 4 4 4 3 3 2 2 2 2 3 3 3 4 4 5 5 4 4 4 3 3 3 3 3 4 5 6 6
1 2 4 5 6 7 8 9 9 7 4 4 7 9 7 6 5 4 3 2 1 0 1 1 2 2 3 3 4 4 4 4 4 4 4 3 3 2 3 3 3 4 5 6
2 3 4 4 5 7 8 7 8 8 6 5 6 8 7 4 3 2 2 1 0 0 0 1 2 1 2 2 3 4 4 4 4 4 3 4 3 2 2 2 2 3 4 5
2 3 4 5 5 6 7 6 7 7 5 4 3 5 5 3 3 2 2 1 1 1 1 1 1 1 1 1 2 3 3 4 4 5 5 6 5 4 3 3 3 3 4 5
2 4 5 4 6 5 5 8 8 8 7 6 6 5 5 2 4 4 2 1 1 2 2 2 2 1 1 1 1 2 2 3 4 4 5 5 4 3 3 3 4 3 3 4
1 2 3 4 5 5 6 6 6 6 4 7 7 6 5 3 3 2 1 0 1 1 2 2 1 1 1 1 1 2 3 2 3 4 5 5 5 4 5 4 4 3 2 2
2 1 0 2 4 3 5 3 2 2 4 5 2 4 4 0 1 0 1 0 1 1 2 2 2 1 1 1 0 1 3 2 3 4 5 5 5 5 5 5 5 4 2 2
3 2 1 1 2 3 3 1 2 3 4 4 3 4 2 2 2 3 3 2 2 2 2 2 1 1 0 0 0 1 2 2 2 3 3 4 5 4 4 4 4 4 3 3
3 2 2 3 3 2 2 2 2 3 5 5 4 3 2 1 2 4 4 4 4 4 3 2 2 2 1 0 0 1 2 2 2 2 2 3 4 4 4 4 3 3 2 3
3 3 2 1 2 2 3 2 1 2 3 5 5 4 2 1 1 3 4 4 4 4 4 4 3 3 2 1 1 0 2 2 3 3 3 3 3 4 4 3 4 4 3 3
3 2 3 1 3 3 1 2 2 3 3 3 4 3 2 1 2 3 4 4 4 3 4 4 3 3 2 2 1 0 1 1 2 3 3 2 2 2 3 3 3 3 3 4
2 2 4 4 2 1 2 3 3 3 4 3 3 4 2 3 3 3 4 4 5 4 3 4 3 3 2 2 2 1 1 1 1 2 2 2 2 3 3 3 3 2 3 3
0 1 3 3 1 1 1 2 3 3 2 4 4 4 1 3 5 4 4 5 4 5 4 4 4 3 3 3 2 2 1 1 1 1 1 2 2 3 3 3 3 2 2 3
1 3 5 6 5 2 5 5 4 4 4 5 7 7 6 6 6 6 5 5 4 4 5 5 4 4 3 3 2 2 2 1 1 1 1 2 3 3 3 3 3 3 3 3
1 4 6 9 9 7 7 7 6 8 8 7 7 7 7 5 4 5 4 4 4 5 5 6 5 4 4 4 4 3 3 2 2 1 2 2 2 2 2 2 2 3 3 3
2 3 4 7 7 6 7 8 8 8 8 9 10 9 4 4 3 4 4 4 4 5 5 5 6 4 5 4 4 4 3 3 2 2 2 2 2 2 2 2 3 3 3 3
3 3 3 4 3 4 6 6 7 5 3 4 8 7 3 4 5 5 4 4 4 5 5 5 5 4 4 4 4 4 4 3 2 2 2 1 2 2 3 3 3 3 3 3
4 3 3 3 2 5 5 0 2 4 4 4 4 4 3 4 5 5 3 2 3 5 5 6 5 5 5 4 4 4 4 3 2 2 2 2 1 2 2 2 3 3 2 3
3 4 3 2 4 6 2 1 1 2 5 3 4 5 4 4 5 2 1 2 3 4 4 5 4 4 4 5 4 4 4 3 2 2 3 2 2 2 2 3 3 2 2 2
0 2 3 3 4 5 3 0 1 1 4 2 2 3 4 3 4 4 2 3 4 4 4 4 4 4 4 5 4 4 4 3 3 3 3 2 2 2 3 3 2 2 2 2
2 3 5 6 5 5 2 1 2 2 5 3 2 3 3 3 4 4 4 4 3 3 4 3 4 4 4 4 4 4 4 4 4 3 2 2 2 2 2 2 2 1 1 1
5 4 4 4 5 6 0 2 3 4 3 2 3 3 3 4 4 4 4 4 4 4 4 3 3 4 4 3 3 4 4 5 4 3 2 2 2 1 1 2 2 2 2 2
5 5 3 5 6 2 2 3 2 2 3 4 3 4 3 4 5 5 4 4 4 4 4 3 3 4 4 3 3 4 5 4 3 2 2 2 2 1 1 1 2 2 2 2
3 2 3 4 5 4 3 2 3 3 3 4 3 4 3 4 6 6 5 4 4 4 3 3 3 4 4 4 4 4 4 3 2 2 2 1 1 1 1 1 1 2 2 2
3 3 3 5 5 4 3 3 3 3 3 3 3 3 3 4 5 5 5 4 4 4 3 3 3 4 5 4 4 4 3 2 2 2 1 1 1 1 1 1 1 2 2 2
3 4 4 6 4 4 5 3 3 4 4 4 4 4 3 3 5 5 5 4 3 3 3 3 4 4 4 4 4 4 3 2 1 1 1 1 0 0 0 0 1 2 2 3
Wind_Direction
180 264 256 271 261 274 285 281 280 283 285 270 258 266 267 252 242 251 255 244 232 216 173 152 154 152 144 143 150 155 154 159 155 160 161 150 139 129 105 91 104 111 112 112
263 280 311 315 311 292 282 284 287 293 311 285 269 271 269 250 245 243 248 246 237 175 112 111 103 125 144 156 161 161 159 162 162 166 169 162 145 134 117 114 105 104 113 116
273 333 322 313 312 300 279 272 281 291 306 271 272 273 251 236 235 255 268 278 301 148 56 135 129 115 130 151 170 174 170 164 162 153 141 138 124 120 123 140 132 104 114 116
338 349 330 322 311 301 283 314 303 292 288 267 240 276 259 238 231 238 259 282 323 350 359 45 112 118 119 172 167 167 167 172 169 160 161 156 159 159 169 160 142 115 115 112
331 354 336 321 318 315 296 309 291 272 265 273 248 256 266 207 246 251 250 289 7 2 3 28 56 96 108 105 160 154 153 170 171 164 165 167 165 152 138 141 139 140 119 113
266 338 348 334 318 312 307 307 284 257 248 253 234 221 262 235 241 252 244 271 359 355 1 18 42 64 55 65 105 153 160 170 178 167 166 172 166 153 145 149 153 151 140 106
264 187 158 313 320 325 328 340 321 272 228 241 236 217 238 209 71 68 352 349 17 19 7 9 24 55 70 59 58 170 161 169 178 175 172 177 173 166 163 162 158 153 151 157
298 277 135 335 320 300 292 271 238 264 269 291 293 241 225 113 61 51 35 20 37 32 3 350 14 46 83 115 176 196 180 177 178 182 188 180 174 174 169 161 154 162 173 180
307 288 12 348 332 317 297 260 264 274 286 274 243 228 218 136 42 36 32 27 20 10 2 359 14 24 37 51 230 209 195 187 186 191 196 194 181 173 169 158 148 160 170 172
309 286 276 272 280 265 272 310 313 249 275 270 261 249 257 279 325 24 22 12 4 4 6 10 13 14 18 13 339 259 197 196 196 197 204 206 190 179 163 154 165 169 171 153
311 259 275 248 218 226 198 235 245 254 262 267 277 272 0 20 16 28 11 6 355 353 350 351 350 353 359 13 13 305 214 209 205 199 205 209 196 167 155 159 169 171 165 159
306 279 270 259 241 265 210 232 208 220 258 249 267 269 6 68 41 34 13 357 355 354 345 345 343 346 358 9 12 346 240 214 221 211 201 207 196 173 171 174 175 177 174 169
255 233 292 296 296 322 269 244 232 242 268 252 249 260 326 14 8 15 7 352 348 349 352 351 353 357 360 1 359 346 325 266 261 236 208 203 197 184 187 187 182 178 175 173
267 230 222 245 270 280 269 264 240 215 231 250 242 260 289 322 336 345 349 349 352 355 359 356 347 346 353 353 347 340 338 347 332 289 228 215 209 197 195 191 185 183 180 176
194 250 251 266 278 272 264 264 239 223 230 243 265 266 281 297 309 316 326 335 348 354 356 352 344 341 344 348 345 346 345 348 339 303 259 241 220 203 191 193 197 187 185 189
204 256 278 272 265 265 270 265 245 240 246 253 269 276 287 304 319 318 319 333 341 345 346 345 344 345 344 340 336 337 335 334 330 290 263 249 222 203 198 200 197 188 185 181
208 215 250 266 281 304 271 248 226 219 220 223 249 262 291 314 312 306 307 330 336 338 334 333 334 331 331 329 329 324 320 325 325 303 291 276 232 201 194 198 190 187 188 183
198 212 236 273 311 247 237 114 186 216 238 233 251 278 292 291 303 297 290 326 342 340 336 334 335 337 334 334 334 325 324 322 317 304 288 271 244 216 196 188 195 197 194 193
203 198 234 239 255 265 252 249 162 214 267 244 263 288 307 325 315 288 358 9 330 321 318 318 320 326 330 333 331 325 319 316 305 294 284 265 240 224 210 207 207 201 194 200
260 186 222 242 252 255 255 338 35 118 265 301 301 278 296 327 302 285 324 328 317 320 320 317 322 327 327 327 330 326 315 309 293 284 280 277 241 222 221 217 215 217 213 213
189 214 222 239 247 255 271 304 97 176 257 315 304 279 276 262 257 279 306 310 308 312 314 320 320 317 314 321 328 321 314 299 293 294 292 287 268 240 227 217 212 201 211 204
187 203 211 216 233 248 267 121 187 235 300 315 308 300 279 275 285 296 305 309 317 317 315 313 312 311 315 322 325 314 306 300 302 302 299 292 281 264 245 209 206 196 191 197
201 201 209 211 225 238 168 189 240 309 303 306 309 307 293 288 292 298 300 302 306 307 306 307 309 311 315 319 321 308 306 308 307 308 303 298 308 292 267 222 203 195 194 200
217 207 231 254 255 256 240 249 287 301 293 303 304 297 291 284 292 297 294 296 301 304 304 310 315 314 314 319 318 306 311 317 313 305 302 299 287 291 283 257 224 203 202 208
216 190 234 252 272 289 257 263 282 298 302 304 305 293 283 282 289 291 292 292 294 300 309 311 311 307 309 316 318 319 322 325 317 304 298 299 300 264 265 284 261 248 233 234
209 202 220 245 251 253 270 282 292 293 293 296 301 303 304 292 288 292 293 295 294 299 308 313 311 310 315 322 321 321 323 322 295 294 295 282 253 273 305 325 330 325 312 305
Height
1480 1483 1483 1482 1481 1480 1478 1476 1475 1474 1475 1477 1477 1475 1475 1476 1476 1476 1477 1477 1478 1479 1481 1481 1482 1483 1484 1485 1486 1488 1489 1491 1493 1495 1497 1499 1501 1503 1506 1509 1511 1513 1515 1517
1482 1484 1483 1481 1480 1479 1477 1478 1477 1475 1475 1477 1477 1474 1473 1473 1474 1475 1475 1475 1476 1477 1478 1478 1479 1480 1481 1482 1483 1484 1486 1488 1490 1492 1494 1496 1499 1501 1503 1506 1508 1509 1511 1514
1483 1486 1483 1482 1482 1480 1478 1479 1479 1479 1478 1477 1478 1474 1471 1470 1472 1472 1473 1473 1474 1475 1475 1476 1476 1477 1478 1479 1480 1481 1483 1485 1487 1489 1492 1494 1496 1498 1501 1502 1504 1506 1508 1511
1484 1485 1484 1483 1483 1482 1480 1479 1478 1479 1481 1480 1477 1480 1469 1469 1470 1470 1471 1472 1473 1473 1474 1474 1474 1475 1476 1477 1478 1479 1481 1482 1484 1486 1488 1489 1491 1492 1495 1498 1500 1503 1505 1508
1486 1486 1486 1486 1485 1484 1482 1480 1479 1478 1479 1482 1478 1482 1473 1469 1470 1470 1470 1471 1471 1472 1472 1472 1473 1473 1473 1474 1475 1476 1478 1479 1481 1483 1485 1486 1488 1490 1493 1495 1498 1500 1503 1505
1487 1487 1487 1487 1486 1485 1483 1480 1478 1477 1479 1484 1475 1478 1473 1470 1468 1468 1469 1469 1470 1470 1471 1471 1471 1471 1472 1472 1473 1473 1475 1476 1478 1480 1482 1483 1485 1487 1489 1491 1494 1497 1499 1502
1487 1487 1487 1488 1487 1486 1485 1487 1487 1483 1483 1478 1470 1473 1474 1469 1468 1468 1468 1468 1469 1469 1469 1469 1469 1469 1469 1470 1470 1471 1472 1473 1475 1477 1479 1481 1483 1485 1486 1488 1490 1493 1495 1498
1489 1490 1488 1488 1489 1491 1489 1489 1494 1492 1481 1473 1474 1473 1472 1468 1468 1467 1468 1468 1468 1468 1468 1468 1468 1468 1468 1467 1468 1468 1469 1470 1472 1474 1476 1478 1480 1482 1483 1485 1487 1490 1492 1494
1492 1491 1489 1488 1488 1489 1489 1489 1488 1491 1486 1484 1473 1470 1470 1468 1468 1468 1468 1467 1467 1468 1468 1467 1467 1466 1466 1466 1466 1466 1467 1468 1469 1471 1473 1475 1477 1478 1480 1482 1484 1487 1489 1492
1493 1495 1490 1489 1489 1489 1490 1489 1492 1492 1490 1482 1469 1467 1470 1470 1468 1469 1469 1469 1468 1468 1467 1467 1466 1466 1465 1464 1464 1465 1465 1465 1466 1468 1470 1471 1473 1475 1476 1479 1481 1483 1486 1488
1493 1497 1493 1491 1492 1490 1491 1491 1491 1490 1488 1486 1478 1476 1470 1470 1470 1470 1470 1470 1469 1468 1467 1466 1465 1465 1464 1463 1462 1462 1463 1463 1464 1465 1467 1468 1469 1471 1473 1475 1478 1480 1482 1484
1494 1495 1496 1490 1488 1487 1488 1490 1492 1496 1491 1486 1484 1482 1471 1471 1470 1470 1471 1470 1469 1468 1467 1466 1465 1464 1463 1461 1460 1460 1461 1461 1462 1462 1463 1464 1466 1468 1470 1472 1474 1476 1478 1480
1495 1498 1499 1492 1492 1491 1490 1489 1490 1492 1492 1488 1486 1482 1472 1471 1471 1472 1471 1470 1469 1468 1466 1465 1464 1463 1462 1460 1459 1459 1459 1459 1459 1460 1461 1462 1463 1465 1466 1468 1471 1472 1474 1476
1493 1496 1498 1494 1488 1489 1490 1489 1489 1491 1493 1487 1481 1477 1474 1473 1472 1472 1471 1470 1469 1468 1466 1465 1463 1462 1461 1460 1459 1458 1457 1457 1457 1457 1458 1459 1460 1461 1463 1465 1467 1469 1470 1472
1493 1495 1492 1487 1484 1484 1485 1485 1486 1487 1485 1485 1477 1475 1474 1474 1474 1473 1471 1470 1468 1467 1465 1464 1462 1461 1460 1459 1457 1456 1455 1455 1454 1454 1454 1455 1456 1458 1459 1461 1463 1465 1467 1468
1492 1493 1490 1487 1482 1481 1481 1480 1481 1482 1481 1480 1476 1475 1473 1472 1472 1471 1470 1468 1467 1465 1464 1463 1461 1460 1458 1457 1455 1454 1453 1453 1452 1452 1451 1452 1454 1455 1456 1458 1460 1461 1463 1464
1491 1493 1491 1485 1482 1481 1481 1477 1476 1477 1476 1477 1477 1474 1472 1471 1471 1470 1469 1467 1466 1464 1463 1461 1460 1458 1457 1455 1454 1452 1451 1451 1450 1449 1449 1450 1451 1451 1453 1455 1456 1458 1459 1460
1490 1490 1489 1486 1486 1486 1476 1472 1471 1472 1473 1473 1472 1471 1470 1470 1469 1468 1467 1466 1464 1463 1461 1459 1458 1456 1455 1453 1452 1450 1449 1448 1447 1447 1447 1447 1448 1448 1450 1451 1452 1453 1455 1456
1486 1488 1487 1485 1484 1475 1473 1472 1473 1474 1472 1470 1470 1469 1469 1468 1465 1465 1464 1464 1463 1461 1460 1458 1456 1454 1452 1451 1449 1447 1446 1445 1445 1444 1444 1445 1445 1446 1447 1448 1449 1450 1451 1453
1486 1487 1488 1483 1482 1478 1472 1471 1469 1472 1472 1467 1467 1467 1467 1466 1467 1464 1463 1461 1460 1458 1457 1455 1453 1451 1450 1448 1447 1445 1444 1443 1442 1442 1441 1442 1442 1443 1443 1444 1446 1447 1448 1449
1488 1487 1486 1483 1480 1473 1473 1470 1470 1476 1471 1467 1466 1466 1465 1465 1465 1463 1460 1459 1457 1455 1454 1452 1450 1449 1447 1446 1444 1442 1441 1440 1440 1439 1439 1439 1439 1440 1441 1442 1443 1444 1445 1446
1483 1484 1483 1481 1479 1474 1470 1470 1472 1470 1466 1465 1464 1464 1463 1462 1460 1459 1457 1456 1454 1452 1450 1449 1447 1446 1444 1443 1442 1440 1439 1438 1437 1436 1436 1436 1436 1437 1438 1439 1440 1441 1442 1443
1477 1477 1475 1475 1473 1468 1467 1466 1466 1466 1465 1463 1462 1461 1460 1459 1457 1456 1454 1452 1451 1449 1447 1446 1444 1442 1442 1441 1439 1437 1436 1435 1434 1434 1433 1433 1433 1434 1435 1436 1437 1438 1439 1439
1473 1472 1472 1470 1466 1465 1465 1464 1464 1463 1462 1461 1460 1459 1457 1455 1454 1452 1451 1449 1447 1446 1444 1443 1441 1440 1439 1438 1437 1435 1434 1433 1432 1431 1431 1431 1431 1432 1432 1433 1434 1434 1435 1436
1469 1470 1469 1468 1465 1463 1461 1461 1460 1460 1459 1458 1456 1455 1454 1452 1450 1449 1447 1446 1444 1443 1442 1440 1439 1437 1436 1435 1434 1433 1432 1431 1430 1429 1429 1429 1429 1430 1430 1431 1431 1432 1433 1433
1465 1467 1468 1464 1461 1461 1458 1458 1457 1456 1455 1454 1453 1451 1450 1449 1447 1446 1444 1442 1441 1440 1439 1438 1436 1435 1434 1433 1432 1431 1430 1429 1428 1427 1427 1427 1427 1427 1428 1428 1429 1429 1430 1431